Notices

What's New in latest Release from April 7th, 2021:

- Updated Glossary, including Speed of Maximum Gust, and Total Hourly Precipitation

- Updated national and regional climate services offices contacts and prices information

- Addition of station inventory lists for 1981-2010, 1971-2000, and 1961-1990 Normals.

If you haven't already, please take our survey and provide feedback about our website: https://eccc.sondage-survey.ca/f/LanguageSelection.aspx?s=442ca660-fcf1-47c0-95a9-59707d6fd709

Hourly Data Report for September 06, 2017

VICTORIA UNIVERSITY CS
BRITISH COLUMBIA

48°27'25.200" N
123°18'16.600" W
60.10 m
1018598
71783
WYJ

Download Data

Hourly Data (September 2017)
Hourly Data Report for September 6, 2017
TIME
LST
Temp Definition
°C
Dew Point Definition
°C
Rel Hum Definition
%
Precip. Amount Definition
mm

Wind Dir Definition
10's deg

Wind Spd Definition
km/h
Visibility Definition
km
Stn Press Definition
kPa
Hmdx Definition


Wind Chill Definition


Weather Definition


00:00 18.7 13.5 72 0.0 0 1   100.59     LegendNANA
01:00 18.0 13.5 75 0.0   0   100.59     LegendNANA
02:00 17.1 12.8 76 0.0 36 2   100.61     LegendNANA
03:00 15.6 12.0 79 0.0 0 1   100.63     LegendNANA
04:00 14.4 11.7 84 0.0 0 1   100.66     LegendNANA
05:00 13.9 12.0 89 0.0 25 1   100.67     LegendNANA
06:00 13.9 12.0 88 0.0 6 3   100.65     LegendNANA
07:00 13.4 12.0 92 0.0 8 3   100.68     LegendNANA
08:00 14.8 12.6 87 0.0 9 4   100.67     LegendNANA
09:00 15.4 12.8 85 0.0 9 2   100.70     LegendNANA
10:00 15.8 12.1 79 0.0 11 2   100.65     LegendNANA
11:00 16.6 12.2 75 0.0 10 3   100.62     LegendNANA
12:00 18.5 13.0 70 0.0 11 3   100.59     LegendNANA
13:00 17.8 12.9 73 0.0 12 4   100.57     LegendNANA
14:00 19.4 13.6 69 0.3 16 4   100.53     LegendNANA
15:00 15.3 12.0 81 0.0 9 3   100.51     LegendNANA
16:00 14.7 12.5 87 0.0 13 4   100.49     LegendNANA
17:00 13.6 11.6 88 0.0 10 2   100.46     LegendNANA
18:00 13.3 11.6 90 0.0 5 2   100.45     LegendNANA
19:00 13.6 11.8 89 0.0 0 1   100.47     LegendNANA
20:00 13.0 11.7 92 0.0 29 5   100.49     LegendNANA
21:00 13.4 12.0 91 0.0 32 1   100.48     LegendNANA
22:00 15.0 12.8 87 0.0 26 2   100.56     LegendNANA
23:00 13.8 12.0 89 0.0 19 2   100.58     LegendNANA

Notes on Data Quality.

Legend

  • E = Estimated
  • M = Missing
  • NA = Not Available*
  • [empty] = Indicates an unobserved value
Date modified: